Location: Brad
(46.1333°N, 22.7833°E)
Time: 12:01:01
(UTC+00:00)

Cosmos 2219 Rocket - Pass Details

Date: 03 February 2023
Orbit: 826 x 848 km, 71.0° (Epoch: 21 March)

Event Time Altitude Azimuth Distance (km) Brightness Sun altitude
Rises 18:04:07 0° 206° (SSW) 3,351 5.6 -25.8°
Reaches altitude 10° 18:06:32 10° 206° (SSW) 2,423 4.8 -26.2°
Maximum altitude 18:12:05 86° 295° (WNW) 837 2.1 -27.2°
Enters shadow 18:12:44 71° 15° (NNE) 877 2.1 -27.3°
